K0HYD Weather Reports


Display with metric or nautical units.
time (UTC)temp
F
wind
direction
speed
MPH
gust
MPH
rain 1hr
in
rain 24hr
in
rain mn
in
humidity
%
barometer
mb
20171217171807 46 255 0.0 1.0 0.00 0.00 0.00 81 1012.9
20171217170307 46 280 0.0 2.0 0.00 0.00 0.00 82 1013.0
20171217164807 45 280 0.0 3.0 0.00 0.00 0.00 85 1013.2
20171217163307 44 75 0.0 1.0 0.00 0.00 0.00 86 1013.3
20171217161807 44 279 0.0 3.0 0.00 0.00 0.00 87 1013.6
20171217160307 43 282 0.0 3.0 0.00 0.00 0.00 89 1013.7
20171217154807 43 278 3.0 5.0 0.00 0.00 0.00 90 1013.8
20171217153307 43 274 2.0 3.0 0.00 0.00 0.00 91 1013.8
20171217151807 43 269 2.0 4.0 0.00 0.00 0.00 92 1013.8
20171217150307 43 264 3.0 4.0 0.00 0.00 0.00 92 1014.0
20171217144807 42 250 2.0 6.0 0.00 0.00 0.00 93 1014.0
20171217143307 42 257 3.0 7.0 0.00 0.00 0.00 93 1013.9
20171217141807 42 251 2.0 7.0 0.00 0.00 0.00 94 1014.0
20171217140307 41 233 5.0 8.0 0.00 0.00 0.00 95 1013.7
20171217134807 41 217 3.0 6.0 0.00 0.00 0.00 96 1013.5
20171217133307 40 225 3.0 5.0 0.00 0.00 0.00 96 1013.3
20171217131807 39 195 1.0 2.0 0.00 0.00 0.00 95 1013.0
20171217130308 39 208 0.0 6.0 0.00 0.00 0.00 95 1012.4
20171217124807 39 209 0.0 3.0 0.00 0.00 0.00 94 1012.0
20171217123307 40 214 1.0 4.0 0.00 0.00 0.00 94 1011.7
20171217121807 41 219 2.0 5.0 0.00 0.00 0.00 93 1011.6
20171217120308 41 193 4.0 8.0 0.00 0.00 0.00 93 1011.7
20171217114808 41 216 3.0 9.0 0.00 0.00 0.00 94 1011.9
20171217113307 41 191 3.0 5.0 0.00 0.00 0.00 93 1011.5
20171217111807 41 179 2.0 5.0 0.00 0.00 0.00 93 1011.1
20171217110308 41 205 1.0 5.0 0.00 0.00 0.00 93 1011.1
20171217104807 41 155 2.0 6.0 0.00 0.00 0.00 93 1011.2
20171217103308 41 163 4.0 6.0 0.00 0.00 0.00 93 1010.9
20171217101807 41 142 1.0 5.0 0.00 0.00 0.00 92 1010.9
20171217100308 41 200 2.0 4.0 0.00 0.00 0.00 92 1010.5
20171217094808 41 207 3.0 4.0 0.00 0.00 0.00 91 1010.2
20171217093308 42 191 2.0 5.0 0.00 0.00 0.00 90 1010.3
20171217090308 43 214 3.0 9.0 0.00 0.00 0.00 89 1010.5
20171217084808 43 158 4.0 8.0 0.00 0.00 0.00 89 1010.7
20171217083308 43 198 3.0 8.0 0.00 0.00 0.00 89 1010.8
20171217081808 43 212 1.0 9.0 0.00 0.00 0.00 88 1010.9
20171217080308 43 186 4.0 9.0 0.00 0.00 0.00 89 1010.7
20171217074808 43 198 5.0 9.0 0.00 0.00 0.00 89 1010.6
20171217073308 43 155 6.0 9.0 0.00 0.00 0.00 89 1010.4
20171217071809 43 127 8.0 11.0 0.00 0.00 0.00 88 1010.3
20171217070309 43 153 3.0 9.0 0.00 0.00 0.00 87 1010.6
20171217064809 43 156 5.0 10.0 0.00 0.00 0.00 87 1010.1
20171217063308 44 172 4.0 13.0 0.00 0.00 0.00 86 1010.4
20171217061808 44 186 5.0 11.0 0.00 0.00 0.00 85 1011.2
20171217060308 44 134 4.0 12.0 0.00 0.00 0.00 83 1011.3
20171217054809 45 142 9.0 11.0 0.00 0.00 0.02 80 1011.1
20171217053309 45 169 3.0 12.0 0.00 0.00 0.01 76 1011.3
20171217051809 47 134 5.0 10.0 0.00 0.00 0.01 66 1010.7
20171217050308 49 137 4.0 11.0 0.00 0.00 0.00 56 1011.4
20171217044809 50 193 2.0 9.0 0.00 0.00 0.00 44 1011.2
20171217043308 50 137 2.0 3.0 0.00 0.00 0.00 44 1010.4
20171217041809 51 149 2.0 4.0 0.00 0.00 0.00 42 1010.3
20171217040309 51 146 2.0 6.0 0.00 0.00 0.00 42 1010.2
20171217034809 51 172 2.0 5.0 0.00 0.00 0.00 42 1009.7
20171217033309 52 162 4.0 8.0 0.00 0.00 0.00 42 1009.7
20171217031809 51 141 5.0 10.0 0.00 0.00 0.00 43 1009.7
20171217030309 51 195 4.0 7.0 0.00 0.00 0.00 45 1009.7
20171217024809 51 174 2.0 7.0 0.00 0.00 0.00 45 1009.7
20171217023309 51 153 4.0 6.0 0.00 0.00 0.00 44 1009.6
20171217021809 52 201 6.0 8.0 0.00 0.00 0.00 43 1009.5
20171217020309 52 210 6.0 8.0 0.00 0.00 0.00 43 1009.7
20171217014809 52 178 3.0 7.0 0.00 0.00 0.00 43 1009.7
20171217013309 52 149 4.0 7.0 0.00 0.00 0.00 43 1009.7
20171217011809 52 153 6.0 9.0 0.00 0.00 0.00 42 1009.3
20171217010309 52 193 5.0 9.0 0.00 0.00 0.00 42 1009.4
20171217004809 52 153 5.0 13.0 0.00 0.00 0.00 42 1009.1
20171217003310 53 209 8.0 11.0 0.00 0.00 0.00 41 1009.0
20171217001809 53 143 7.0 16.0 0.00 0.00 0.00 41 1008.6
20171217000309 53 154 3.0 15.0 0.00 0.00 0.00 40 1008.2
20171216234809 54 212 3.0 13.0 0.00 0.00 0.00 39 1008.5
20171216233309 54 163 7.0 16.0 0.00 0.00 0.00 39 1008.6
20171216231809 56 240 7.0 14.0 0.00 0.00 0.00 38 1008.5
20171216230310 57 212 3.0 13.0 0.00 0.00 0.00 35 1008.2
20171216224809 58 162 5.0 14.0 0.00 0.00 0.00 33 1008.0
20171216223310 59 206 8.0 15.0 0.00 0.00 0.00 32 1007.9
20171216221809 59 233 7.0 19.0 0.00 0.00 0.00 30 1007.8
20171216220310 60 148 5.0 12.0 0.00 0.00 0.00 29 1007.8
20171216214810 60 179 5.0 16.0 0.00 0.00 0.00 29 1007.7
20171216213310 60 224 4.0 14.0 0.00 0.00 0.00 29 1007.8
20171216211810 60 179 6.0 15.0 0.00 0.00 0.00 30 1007.5
20171216210310 61 224 11.0 15.0 0.00 0.00 0.00 31 1007.6
20171216204810 60 158 6.0 18.0 0.00 0.00 0.00 31 1007.7
20171216203310 60 222 8.0 20.0 0.00 0.00 0.00 32 1007.5
20171216201810 60 236 11.0 13.0 0.00 0.00 0.00 34 1007.4
20171216200310 59 176 5.0 15.0 0.00 0.00 0.00 35 1007.4
20171216194810 58 229 8.0 17.0 0.00 0.00 0.00 37 1007.4
20171216193310 57 190 7.0 16.0 0.00 0.00 0.00 37 1007.7
20171216191810 56 203 12.0 16.0 0.00 0.00 0.00 39 1007.8
20171216190310 56 222 16.0 19.0 0.00 0.00 0.00 40 1008.1
20171216184810 56 211 13.0 15.0 0.00 0.00 0.00 41 1008.4
20171216183310 55 203 3.0 13.0 0.00 0.00 0.00 41 1008.6
20171216181810 54 146 6.0 15.0 0.00 0.00 0.00 44 1008.7
20171216180310 52 222 5.0 19.0 0.00 0.00 0.00 45 1008.9
20171216174811 51 173 6.0 18.0 0.00 0.00 0.00 46 1009.4
20171216173310 51 193 5.0 17.0 0.00 0.00 0.00 46 1009.6